Track SUOMI NPP now! 10-day predictions SUOMI NPP is classified as:
1 37849U 11061A 24325.79980985 .00000245 00000-0 13704-3 0 9990 2 37849 98.7373 261.5079 0001669 113.7733 246.3619 14.19565964677097